This is the latest recevied weather packets stored in our database for station/object IR1CH-3. If no packets are shown the sender has not sent any weather packets the latest 10 day(s).
| Time | Temp. | Humidity | Pressure | Rain* | Wind** | Luminosity | Snow |
|---|---|---|---|---|---|---|---|
| 1777434015 | 14.44° C | 78% | 1014.9 hPa | - | - | - | - |
| 1777432215 | 14.44° C | 75% | 1015.1 hPa | - | - | - | - |
| 1777430415 | 14.44° C | 76% | 1015.1 hPa | - | - | - | - |
| 1777428615 | 14.44° C | 74% | 1015 hPa | - | - | - | - |
| 1777426814 | 15° C | 74% | 1015 hPa | - | - | - | - |
| 1777425014 | 15° C | 74% | 1015 hPa | - | - | - | - |
| 1777423214 | 15° C | 80% | 1015.1 hPa | - | - | - | - |
| 1777421413 | 15° C | 81% | 1015 hPa | - | - | - | - |
| 1777419613 | 15.56° C | 82% | 1015.1 hPa | - | - | - | - |
| 1777417813 | 15.56° C | 90% | 1015.2 hPa | - | - | - | - |
| 1777416012 | 15.56° C | 96% | 1015.1 hPa | - | - | - | - |
| 1777414212 | 15.56° C | 95% | 1015.1 hPa | - | - | - | - |
| 1777412412 | 15.56° C | 95% | 1015.1 hPa | - | - | - | - |
| 1777410611 | 16.67° C | 91% | 1015.1 hPa | - | - | - | - |
| 1777408811 | 16.67° C | 93% | 1015.2 hPa | - | - | - | - |
| 1777407011 | 18.33° C | 90% | 1015.3 hPa | - | - | - | - |
| 1777405210 | 16.67° C | 95% | 1015.4 hPa | - | - | - | - |
| 1777403410 | 17.78° C | 99% | 1015 hPa | - | - | - | - |
| 1777401609 | 17.22° C | 99% | 1014.8 hPa | - | - | - | - |
| 1777399809 | 17.22° C | 99% | 1014.6 hPa | - | - | - | - |
| 1777398009 | 18.33° C | 99% | 1014.5 hPa | - | - | - | - |
| 1777396208 | 17.78° C | 96% | 1014.4 hPa | - | - | - | - |
| 1777394408 | 16.67° C | 99% | 1014.5 hPa | - | - | - | - |
| 1777392608 | 18.33° C | 93% | 1014.6 hPa | - | - | - | - |
| 1777390807 | 17.78° C | 95% | 1014.8 hPa | - | - | - | - |
* Rain since midnight (hover to see other rain measurements)
** Current wind speed in m/s (hover to see current wind gust speed)